Gogerbank, United Kingdom

6:44 PM GMT on February 26, 2017 (GMT +0000)
Edinburgh Airport

Weather History for EGPH - August, 2013

Change the Weather History Date:

Monday, August 19, 2013

  Actual Average Record
Temperature  
Mean Temperature 57 °F -  
Max Temperature 64 °F 62 °F 73 °F (1997)
Min Temperature 50 °F 48 °F 41 °F (2014)
Degree Days  
Heating Degree Days 8    
Growing Degree Days 7 (Base 50)    
Moisture  
Dew Point 50 °F    
Average Humidity 76    
Maximum Humidity 88    
Minimum Humidity 55    
Precipitation  
Precipitation 0.00 in 0.09 in - ()
Sea Level Pressure  
Sea Level Pressure 29.98 in    
Wind  
Wind Speed 11 mph ()    
Max Wind Speed 22 mph    
Max Gust Speed 34 mph    
Visibility 6.2 miles    
Events Rain    
Averages and records for this station are not official NWS values.
T = Trace of Precipitation, MM = Missing Value Source: Averaged Metar Reports

Daily Weather History Graph

Daily Weather History Graph

Search for Another Location

Airport or City:

Trip Planner

Search our weather history database for the weather conditions in past years. The results will help you decide how hot, cold, wet, or windy it might be!

Date:

Astronomy

Aug. 19, 2013 Rise Set
Actual Time 5:52 AM BST 8:40 PM BST
Civil Twilight 5:10 AM BST 9:22 PM BST
Nautical Twilight 4:14 AM BST 10:17 PM BST
Astronomical Twilight 2:59 AM BST 11:29 PM BST
Moon 7:22 PM BST (8/19) 3:45 AM BST (8/19)
Length of Visible Light 16h 11m
Length of Day
14h 47m
Waxing Gibbous, 96% of the Moon is Illuminated
Aug 19
Waxing Gibbous
Aug 21
Full
Aug 28
Last Quarter
Sep 5
New
Sep 12
First Quarter

Hourly Weather History & Observations

Time (BST) Temp. Dew Point Humidity Pressure Visibility Wind Dir Wind Speed Gust Speed Precip Events Conditions
12:20 AM 51.8 °F 48.2 °F 88% 29.80 in - Variable 3.5 mph - N/A   Clear
12:50 AM 50.0 °F 46.4 °F 87% 29.80 in - WSW 10.4 mph - N/A   Clear
1:20 AM 50.0 °F 46.4 °F 87% 29.83 in - SW 5.8 mph - N/A   Clear
1:50 AM 51.8 °F 48.2 °F 88% 29.83 in - SSW 8.1 mph - N/A   Clear
2:20 AM 51.8 °F 48.2 °F 88% 29.83 in - WSW 6.9 mph - N/A   Clear
2:50 AM 53.6 °F 48.2 °F 82% 29.83 in 6.2 mi WSW 11.5 mph - N/A   Mostly Cloudy
3:20 AM 53.6 °F 48.2 °F 82% 29.86 in - WSW 9.2 mph - N/A   Clear
3:50 AM 53.6 °F 48.2 °F 82% 29.86 in - WSW 6.9 mph - N/A   Clear
4:20 AM 53.6 °F 50.0 °F 88% 29.86 in 6.2 mi WSW 12.7 mph - N/A   Mostly Cloudy
4:50 AM 53.6 °F 50.0 °F 88% 29.86 in 6.2 mi WSW 15.0 mph - N/A   Mostly Cloudy
5:20 AM 53.6 °F 50.0 °F 88% 29.86 in - SW 13.8 mph - N/A   Clear
5:50 AM 53.6 °F 50.0 °F 88% 29.86 in 6.2 mi SW 13.8 mph - N/A   Partly Cloudy
6:20 AM 53.6 °F 48.2 °F 82% 29.89 in 6.2 mi WSW 10.4 mph - N/A   Partly Cloudy
6:50 AM 53.6 °F 50.0 °F 88% 29.89 in 6.2 mi SW 16.1 mph - N/A   Unknown
7:20 AM 55.4 °F 50.0 °F 82% 29.89 in 6.2 mi WSW 13.8 mph - N/A   Partly Cloudy
7:50 AM 55.4 °F 50.0 °F 82% 29.92 in 6.2 mi WSW 15.0 mph - N/A   Partly Cloudy
8:20 AM 59.0 °F 50.0 °F 72% 29.92 in 6.2 mi WSW 11.5 mph - N/A   Scattered Clouds
8:50 AM 57.2 °F 51.8 °F 82% 29.92 in 6.2 mi WSW 16.1 mph - N/A Rain Light Rain Showers
9:20 AM 59.0 °F 53.6 °F 82% 29.95 in 6.2 mi WSW 13.8 mph - N/A   Scattered Clouds
9:50 AM 59.0 °F 51.8 °F 77% 29.95 in 6.2 mi WSW 19.6 mph - N/A   Scattered Clouds
10:20 AM 57.2 °F 53.6 °F 88% 29.98 in 6.2 mi SW 17.3 mph - N/A Rain Light Rain Showers
10:50 AM 59.0 °F 55.4 °F 88% 29.98 in 6.2 mi WSW 12.7 mph - N/A   Partly Cloudy
11:20 AM 60.8 °F 53.6 °F 77% 29.98 in 6.2 mi WSW 17.3 mph - N/A   Scattered Clouds
11:50 AM 60.8 °F 50.0 °F 68% 29.98 in 6.2 mi WSW 19.6 mph - N/A   Scattered Clouds
12:20 PM 60.8 °F 53.6 °F 77% 30.01 in 6.2 mi WSW 13.8 mph - N/A   Mostly Cloudy
12:50 PM 60.8 °F 51.8 °F 72% 30.01 in 6.2 mi West 13.8 mph - N/A   Scattered Clouds
1:20 PM 62.6 °F 51.8 °F 68% 30.01 in 6.2 mi WSW 17.3 mph - N/A   Mostly Cloudy
1:50 PM 59.0 °F 48.2 °F 67% 30.01 in 6.2 mi West 13.8 mph 26.5 mph N/A   Mostly Cloudy
2:20 PM 62.6 °F 50.0 °F 63% 30.01 in 6.2 mi West 15.0 mph - N/A   Mostly Cloudy
2:50 PM 60.8 °F 51.8 °F 72% 30.04 in 6.2 mi West 10.4 mph - N/A Rain Light Rain
3:20 PM 60.8 °F 51.8 °F 72% 30.04 in 6.2 mi West 10.4 mph - N/A   Mostly Cloudy
3:50 PM 64.4 °F 48.2 °F 56% 30.04 in 6.2 mi WSW 21.9 mph - N/A   Scattered Clouds
4:20 PM 64.4 °F 48.2 °F 56% 30.04 in 6.2 mi West 16.1 mph - N/A   Scattered Clouds
4:50 PM 62.6 °F 46.4 °F 55% 30.06 in 6.2 mi West 20.7 mph - N/A   Scattered Clouds
5:20 PM 62.6 °F 46.4 °F 55% 30.06 in 6.2 mi WSW 21.9 mph 34.5 mph N/A   Scattered Clouds
5:50 PM 62.6 °F 48.2 °F 59% 30.06 in 6.2 mi West 12.7 mph - N/A   Partly Cloudy
6:20 PM 62.6 °F 50.0 °F 63% 30.06 in 6.2 mi West 11.5 mph - N/A   Scattered Clouds
6:50 PM 62.6 °F 48.2 °F 59% 30.09 in 6.2 mi West 13.8 mph - N/A   Partly Cloudy
7:20 PM 60.8 °F 48.2 °F 63% 30.09 in 6.2 mi WSW 10.4 mph - N/A   Partly Cloudy
7:50 PM 60.8 °F 48.2 °F 63% 30.09 in 6.2 mi WSW 11.5 mph - N/A   Partly Cloudy
8:20 PM 59.0 °F 48.2 °F 67% 30.12 in 6.2 mi West 11.5 mph - N/A   Partly Cloudy
8:50 PM 59.0 °F 48.2 °F 67% 30.12 in 6.2 mi West 13.8 mph - N/A   Partly Cloudy
9:20 PM 57.2 °F 50.0 °F 77% 30.12 in - WSW 10.4 mph - N/A   Clear
9:50 PM 57.2 °F 50.0 °F 77% 30.15 in - WSW 11.5 mph - N/A   Clear
10:20 PM 55.4 °F 50.0 °F 82% 30.15 in - WSW 9.2 mph - N/A   Clear
10:50 PM 55.4 °F 50.0 °F 82% 30.15 in 6.2 mi WSW 9.2 mph - N/A   Unknown
11:20 PM 53.6 °F 50.0 °F 88% 30.15 in - WSW 6.9 mph - N/A   Clear
11:50 PM 53.6 °F 50.0 °F 88% 30.15 in - WSW 6.9 mph - N/A   Clear